"Sample Date","Sample Time","Sample Value","Units","Flow Rate","Sample Interval","Number Channels","Micron Size 0","Counts/Channel 0","Micron Size 1","Counts/Channel 1","Micron Size 2","Counts/Channel 2","Micron Size 3","Counts/Channel 3","Micron Size 4","Counts/Channel 4","Micron Size 5","Counts/Channel 5","Micron Size 6","Counts/Channel 6","Micron Size 7","Counts/Channel 7","Micron Size 8","Counts/Channel 8","Micron Size 9","Counts/Channel 9","Micron Size 10","Counts/Channel 10","Micron Size 11","Counts/Channel 11","Micron Size 12","Counts/Channel 12","Micron Size 13","Counts/Channel 13","Micron Size 14","Counts/Channel 14","Micron Size 15","Counts/Channel 15","Micron Size 16","Counts/Channel 16","Micron Size 17","Counts/Channel 17","Micron Size 18","Counts/Channel 18","Micron Size 19","Counts/Channel 19","Micron Size 20","Counts/Channel 20","Micron Size 21","Counts/Channel 21","Micron Size 22","Counts/Channel 22","Micron Size 23","Counts/Channel 23","Micron Size 24","Counts/Channel 24","Micron Size 25","Counts/Channel 25","Micron Size 26","Counts/Channel 26","Micron Size 27","Counts/Channel 27","Micron Size 28","Counts/Channel 28","Micron Size 29","Counts/Channel 29","Micron Size 30","Counts/Channel 30","Micron Size 31","Counts/Channel 31"
"04/05/08","21:00:00",82587.000,"cc",28268.561,6.00,6,0.100,70133.000,0.200,9126.000,0.300,1842.000,0.500,1241.000,1.000,245.000,5.000,0
"04/05/08","21:00:06",137752.000,"cc",28291.416,6.00,6,0.100,118214.000,0.200,15675.000,0.300,2223.000,0.500,1344.000,1.000,296.000,5.000,0
"04/05/08","21:00:12",159274.000,"cc",28286.973,6.00,6,0.100,138009.000,0.200,17557.000,0.300,2270.000,0.500,1200.000,1.000,238.000,5.000,0
"04/05/08","21:00:18",186301.000,"cc",28347.750,6.00,6,0.100,161406.000,0.200,21280.000,0.300,2293.000,0.500,1087.000,1.000,235.000,5.000,0
"04/05/08","21:00:24",189098.000,"cc",28302.500,6.00,6,0.100,163747.000,0.200,21710.000,0.300,2201.000,0.500,1183.000,1.000,257.000,5.000,0
"04/05/08","21:00:30",179470.000,"cc",28298.219,6.00,6,0.100,155139.000,0.200,20421.000,0.300,2384.000,0.500,1249.000,1.000,277.000,5.000,0
"04/05/08","21:00:36",151165.000,"cc",28338.492,6.00,6,0.100,131730.000,0.200,16568.000,0.300,1766.000,0.500,919.000,1.000,182.000,5.000,0
"04/05/08","21:00:42",114972.000,"cc",28323.115,6.00,6,0.100,100466.000,0.200,12405.000,0.300,1289.000,0.500,666.000,1.000,146.000,5.000,0
"04/05/08","21:00:48",200816.000,"cc",28348.404,6.00,6,0.100,173967.000,0.200,23398.000,0.300,2249.000,0.500,1009.000,1.000,193.000,5.000,0
"04/05/08","21:00:54",199112.000,"cc",28297.016,6.00,6,0.100,173111.000,0.200,22634.000,0.300,2226.000,0.500,933.000,1.000,208.000,5.000,0
"04/05/08","21:01:00",318860.000,"cc",28384.020,6.00,6,0.100,271674.000,0.200,43707.000,0.300,2742.000,0.500,625.000,1.000,112.000,5.000,0
"04/05/08","21:01:06",313754.000,"cc",28294.940,6.00,6,0.100,255200.000,0.200,54517.000,0.300,3257.000,0.500,637.000,1.000,143.000,5.000,0
"04/05/08","21:01:12",365974.000,"cc",28296.004,6.00,6,0.100,309191.000,0.200,52570.000,0.300,3295.000,0.500,775.000,1.000,143.000,5.000,0
"04/05/08","21:01:18",303594.000,"cc",28362.705,6.00,6,0.100,261694.000,0.200,38645.000,0.300,2439.000,0.500,676.000,1.000,140.000,5.000,0
"04/05/08","21:01:24",258881.000,"cc",28302.231,6.00,6,0.100,223694.000,0.200,31578.000,0.300,2510.000,0.500,915.000,1.000,184.000,5.000,0
"04/05/08","21:01:30",259385.000,"cc",28318.727,6.00,6,0.100,223601.000,0.200,31823.000,0.300,2625.000,0.500,1118.000,1.000,218.000,5.000,0
"04/05/08","21:01:36",282499.000,"cc",28341.713,6.00,6,0.100,243080.000,0.200,35675.000,0.300,2668.000,0.500,890.000,1.000,186.000,5.000,0
"04/05/08","21:01:42",309704.000,"cc",28292.631,6.00,6,0.100,266585.000,0.200,39290.000,0.300,2781.000,0.500,888.000,1.000,160.000,5.000,0
"04/05/08","21:01:48",237708.000,"cc",28277.904,6.00,6,0.100,206508.000,0.200,27961.000,0.300,2193.000,0.500,864.000,1.000,182.000,5.000,0
"04/05/08","21:01:54",173874.000,"cc",28370.268,6.00,6,0.100,152074.000,0.200,19280.000,0.300,1649.000,0.500,720.000,1.000,151.000,5.000,0
"04/05/08","21:02:00",242392.000,"cc",28332.992,6.00,6,0.100,209921.000,0.200,28892.000,0.300,2410.000,0.500,959.000,1.000,210.000,5.000,0
"04/05/08","21:02:06",187741.000,"cc",28344.988,6.00,6,0.100,162841.000,0.200,21499.000,0.300,2167.000,0.500,1009.000,1.000,225.000,5.000,0
"04/05/08","21:02:12",179098.000,"cc",28315.115,6.00,6,0.100,156223.000,0.200,20530.000,0.300,1601.000,0.500,628.000,1.000,116.000,5.000,0
"04/05/08","21:02:18",237702.000,"cc",28360.145,6.00,6,0.100,206401.000,0.200,28652.000,0.300,1903.000,0.500,622.000,1.000,124.000,5.000,0
"04/05/08","21:02:24",185629.000,"cc",28195.047,6.00,6,0.100,162413.000,0.200,20600.000,0.300,1702.000,0.500,759.000,1.000,155.000,5.000,0
"04/05/08","21:02:30",204383.000,"cc",28321.158,6.00,6,0.100,177299.000,0.200,23710.000,0.300,2198.000,0.500,974.000,1.000,202.000,5.000,0
"04/05/08","21:02:36",202160.000,"cc",28395.086,6.00,6,0.100,175756.000,0.200,23221.000,0.300,2067.000,0.500,903.000,1.000,213.000,5.000,0
"04/05/08","21:02:42",188670.000,"cc",28300.326,6.00,6,0.100,164527.000,0.200,21316.000,0.300,1827.000,0.500,815.000,1.000,185.000,5.000,0
"04/05/08","21:02:48",197257.000,"cc",28342.070,6.00,6,0.100,171426.000,0.200,22500.000,0.300,2141.000,0.500,989.000,1.000,201.000,5.000,0
"04/05/08","21:02:54",170081.000,"cc",28266.238,6.00,6,0.100,147729.000,0.200,19623.000,0.300,1741.000,0.500,807.000,1.000,181.000,5.000,0
"04/05/08","21:03:00",265878.000,"cc",28328.565,6.00,6,0.100,229859.000,0.200,32906.000,0.300,2264.000,0.500,720.000,1.000,129.000,5.000,0
"04/05/08","21:03:06",281277.000,"cc",28273.627,6.00,6,0.100,242553.000,0.200,35274.000,0.300,2562.000,0.500,744.000,1.000,144.000,5.000,0
"04/05/08","21:03:12",223410.000,"cc",28318.203,6.00,6,0.100,193463.000,0.200,26591.000,0.300,2277.000,0.500,894.000,1.000,185.000,5.000,0
"04/05/08","21:03:18",204913.000,"cc",28333.285,6.00,6,0.100,178425.000,0.200,23392.000,0.300,2048.000,0.500,846.000,1.000,202.000,5.000,0
"04/05/08","21:03:24",147443.000,"cc",28340.877,6.00,6,0.100,127901.000,0.200,16754.000,0.300,1723.000,0.500,871.000,1.000,194.000,5.000,0
"04/05/08","21:03:30",201165.000,"cc",28276.793,6.00,6,0.100,174639.000,0.200,23393.000,0.300,2055.000,0.500,891.000,1.000,187.000,5.000,0
"04/05/08","21:03:36",175100.000,"cc",28347.445,6.00,6,0.100,151357.000,0.200,20318.000,0.300,2161.000,0.500,1021.000,1.000,243.000,5.000,0
"04/05/08","21:03:42",147257.000,"cc",28324.057,6.00,6,0.100,127187.000,0.200,16773.000,0.300,2009.000,0.500,1046.000,1.000,242.000,5.000,0
"04/05/08","21:03:48",115880.000,"cc",28312.391,6.00,6,0.100,99961.000,0.200,12787.000,0.300,1808.000,0.500,1094.000,1.000,230.000,5.000,0
"04/05/08","21:03:54",199547.000,"cc",28317.438,6.00,6,0.100,172182.000,0.200,23609.000,0.300,2444.000,0.500,1068.000,1.000,244.000,5.000,0
"04/05/08","21:04:00",135596.000,"cc",28333.522,6.00,6,0.100,118091.000,0.200,15011.000,0.300,1564.000,0.500,754.000,1.000,176.000,5.000,0
"04/05/08","21:04:06",220415.000,"cc",28263.510,6.00,6,0.100,192186.000,0.200,25451.000,0.300,1934.000,0.500,705.000,1.000,139.000,5.000,0
"04/05/08","21:04:12",257664.000,"cc",28344.002,6.00,6,0.100,223814.000,0.200,30706.000,0.300,2221.000,0.500,771.000,1.000,152.000,5.000,0
"04/05/08","21:04:18",216203.000,"cc",28289.760,6.00,6,0.100,188417.000,0.200,25248.000,0.300,1776.000,0.500,623.000,1.000,139.000,5.000,0
"04/05/08","21:04:24",188392.000,"cc",28347.754,6.00,6,0.100,165114.000,0.200,21020.000,0.300,1560.000,0.500,573.000,1.000,125.000,5.000,0
"04/05/08","21:04:30",147069.000,"cc",28305.092,6.00,6,0.100,129301.000,0.200,15830.000,0.300,1283.000,0.500,535.000,1.000,120.000,5.000,0
"04/05/08","21:04:36",112269.000,"cc",28347.918,6.00,6,0.100,97775.000,0.200,12228.000,0.300,1380.000,0.500,729.000,1.000,157.000,5.000,0
"04/05/08","21:04:42",124673.000,"cc",28305.652,6.00,6,0.100,108699.000,0.200,13394.000,0.300,1623.000,0.500,799.000,1.000,158.000,5.000,0
"04/05/08","21:04:48",210523.000,"cc",28287.176,6.00,6,0.100,180612.000,0.200,24981.000,0.300,2964.000,0.500,1622.000,1.000,344.000,5.000,0
"04/05/08","21:04:54",225996.000,"cc",28325.805,6.00,6,0.100,195304.000,0.200,26864.000,0.300,2486.000,0.500,1102.000,1.000,240.000,5.000,0
"04/05/08","21:05:00",147905.000,"cc",28328.270,6.00,6,0.100,128623.000,0.200,16786.000,0.300,1584.000,0.500,749.000,1.000,163.000,5.000,0
"04/05/08","21:05:06",148547.000,"cc",28305.658,6.00,6,0.100,129659.000,0.200,16277.000,0.300,1688.000,0.500,770.000,1.000,153.000,5.000,0
"04/05/08","21:05:12",187694.000,"cc",28335.701,6.00,6,0.100,162986.000,0.200,21708.000,0.300,1947.000,0.500,857.000,1.000,196.000,5.000,0
"04/05/08","21:05:18",106964.000,"cc",28291.902,6.00,6,0.100,93906.000,0.200,11312.000,0.300,1060.000,0.500,559.000,1.000,127.000,5.000,0
"04/05/08","21:05:24",214297.000,"cc",28318.131,6.00,6,0.100,186131.000,0.200,25655.000,0.300,1780.000,0.500,616.000,1.000,115.000,5.000,0
"04/05/08","21:05:30",108598.000,"cc",28326.279,6.00,6,0.100,95330.000,0.200,11821.000,0.300,954.000,0.500,414.000,1.000,79.000,5.000,0
"04/05/08","21:05:36",181760.000,"cc",28271.879,6.00,6,0.100,158461.000,0.200,21035.000,0.300,1552.000,0.500,592.000,1.000,120.000,5.000,0
"04/05/08","21:05:42",160771.000,"cc",28311.498,6.00,6,0.100,139943.000,0.200,18146.000,0.300,1783.000,0.500,743.000,1.000,156.000,5.000,0
"04/05/08","21:05:48",85829.000,"cc",28327.830,6.00,6,0.100,73707.000,0.200,9751.000,0.300,1393.000,0.500,804.000,1.000,174.000,5.000,0
"04/05/08","21:05:54",150600.000,"cc",28335.811,6.00,6,0.100,131400.000,0.200,16632.000,0.300,1593.000,0.500,807.000,1.000,168.000,5.000,0
"04/05/08","21:06:00",138322.000,"cc",28314.965,6.00,6,0.100,120407.000,0.200,15227.000,0.300,1736.000,0.500,794.000,1.000,158.000,5.000,0
"04/05/08","21:06:06",78790.000,"cc",28361.434,6.00,6,0.100,68109.000,0.200,8563.000,0.300,1308.000,0.500,673.000,1.000,137.000,5.000,0
"04/05/08","21:06:12",98181.000,"cc",28336.440,6.00,6,0.100,85198.000,0.200,10546.000,0.300,1486.000,0.500,784.000,1.000,167.000,5.000,0
"04/05/08","21:06:18",119791.000,"cc",28396.883,6.00,6,0.100,103026.000,0.200,13519.000,0.300,1982.000,0.500,1037.000,1.000,227.000,5.000,0
"04/05/08","21:06:24",87972.000,"cc",28292.791,6.00,6,0.100,76238.000,0.200,9534.000,0.300,1325.000,0.500,717.000,1.000,158.000,5.000,0
"04/05/08","21:06:30",79882.000,"cc",28230.914,6.00,6,0.100,69168.000,0.200,8481.000,0.300,1269.000,0.500,791.000,1.000,173.000,5.000,0
"04/05/08","21:06:36",120653.000,"cc",28268.346,6.00,6,0.100,105497.000,0.200,13037.000,0.300,1364.000,0.500,623.000,1.000,132.000,5.000,0
"04/05/08","21:06:42",166287.000,"cc",28370.107,6.00,6,0.100,144901.000,0.200,18615.000,0.300,1818.000,0.500,784.000,1.000,169.000,5.000,0
"04/05/08","21:06:48",117097.000,"cc",28284.365,6.00,6,0.100,101695.000,0.200,12826.000,0.300,1570.000,0.500,817.000,1.000,189.000,5.000,0
"04/05/08","21:06:54",62707.000,"cc",28294.590,6.00,6,0.100,53613.000,0.200,6806.000,0.300,1322.000,0.500,805.000,1.000,161.000,5.000,0
"04/05/08","21:07:00",78995.000,"cc",28338.203,6.00,6,0.100,67995.000,0.200,8438.000,0.300,1489.000,0.500,874.000,1.000,199.000,5.000,0
"04/05/08","21:07:06",79200.000,"cc",28310.436,6.00,6,0.100,67805.000,0.200,8624.000,0.300,1607.000,0.500,962.000,1.000,202.000,5.000,0
"04/05/08","21:07:12",82871.000,"cc",28373.551,6.00,6,0.100,71082.000,0.200,9013.000,0.300,1605.000,0.500,956.000,1.000,215.000,5.000,0
"04/05/08","21:07:18",121824.000,"cc",28375.342,6.00,6,0.100,104709.000,0.200,13637.000,0.300,2090.000,0.500,1162.000,1.000,226.000,5.000,0
"04/05/08","21:07:24",84379.000,"cc",28286.111,6.00,6,0.100,72349.000,0.200,9190.000,0.300,1670.000,0.500,947.000,1.000,223.000,5.000,0
"04/05/08","21:07:30",127208.000,"cc",28305.846,6.00,6,0.100,109690.000,0.200,14222.000,0.300,1981.000,0.500,1089.000,1.000,226.000,5.000,0
"04/05/08","21:07:36",82868.000,"cc",28262.750,6.00,6,0.100,71836.000,0.200,8613.000,0.300,1390.000,0.500,829.000,1.000,200.000,5.000,0
"04/05/08","21:07:42",86054.000,"cc",28320.596,6.00,6,0.100,74757.000,0.200,9089.000,0.300,1290.000,0.500,744.000,1.000,174.000,5.000,0
"04/05/08","21:07:48",68836.000,"cc",28366.367,6.00,6,0.100,58992.000,0.200,7532.000,0.300,1339.000,0.500,813.000,1.000,160.000,5.000,0
"04/05/08","21:07:54",61121.000,"cc",28255.389,6.00,6,0.100,52365.000,0.200,6622.000,0.300,1204.000,0.500,742.000,1.000,188.000,5.000,0
"04/05/08","21:08:00",37284.000,"cc",28354.020,6.00,6,0.100,31431.000,0.200,4116.000,0.300,1005.000,0.500,612.000,1.000,120.000,5.000,0
"04/05/08","21:08:06",52500.000,"cc",28296.607,6.00,6,0.100,45229.000,0.200,5549.000,0.300,937.000,0.500,630.000,1.000,155.000,5.000,0
"04/05/08","21:08:12",72303.000,"cc",28302.029,6.00,6,0.100,62235.000,0.200,7893.000,0.300,1245.000,0.500,769.000,1.000,161.000,5.000,0
"04/05/08","21:08:18",70148.000,"cc",28315.359,6.00,6,0.100,60197.000,0.200,7785.000,0.300,1309.000,0.500,713.000,1.000,144.000,5.000,0
"04/05/08","21:08:24",83398.000,"cc",28353.936,6.00,6,0.100,71735.000,0.200,9225.000,0.300,1446.000,0.500,803.000,1.000,189.000,5.000,0
"04/05/08","21:08:30",55772.000,"cc",28365.850,6.00,6,0.100,47709.000,0.200,6193.000,0.300,1098.000,0.500,623.000,1.000,149.000,5.000,0
"04/05/08","21:08:36",41774.000,"cc",28314.840,6.00,6,0.100,35655.000,0.200,4558.000,0.300,841.000,0.500,599.000,1.000,121.000,5.000,0
"04/05/08","21:08:42",58705.000,"cc",28278.707,6.00,6,0.100,51007.000,0.200,6229.000,0.300,833.000,0.500,515.000,1.000,121.000,5.000,0
"04/05/08","21:08:48",70641.000,"cc",28314.596,6.00,6,0.100,61349.000,0.200,7451.000,0.300,1081.000,0.500,636.000,1.000,124.000,5.000,0
"04/05/08","21:08:54",64604.000,"cc",28322.869,6.00,6,0.100,55724.000,0.200,6976.000,0.300,1050.000,0.500,682.000,1.000,172.000,5.000,0
"04/05/08","21:09:00",64652.000,"cc",28288.832,6.00,6,0.100,55577.000,0.200,7111.000,0.300,1104.000,0.500,685.000,1.000,175.000,5.000,0
"04/05/08","21:09:06",66997.000,"cc",28321.295,6.00,6,0.100,57857.000,0.200,7190.000,0.300,1114.000,0.500,675.000,1.000,161.000,5.000,0
"04/05/08","21:09:12",51747.000,"cc",28353.053,6.00,6,0.100,44473.000,0.200,5635.000,0.300,904.000,0.500,576.000,1.000,159.000,5.000,0
"04/05/08","21:09:18",39419.000,"cc",28303.647,6.00,6,0.100,33823.000,0.200,4246.000,0.300,737.000,0.500,505.000,1.000,108.000,5.000,0
"04/05/08","21:09:24",34831.000,"cc",28303.063,6.00,6,0.100,30070.000,0.200,3689.000,0.300,573.000,0.500,395.000,1.000,104.000,5.000,0
"04/05/08","21:09:30",25374.000,"cc",28288.695,6.00,6,0.100,21863.000,0.200,2686.000,0.300,420.000,0.500,327.000,1.000,78.000,5.000,0
"04/05/08","21:09:36",29240.000,"cc",28293.242,6.00,6,0.100,24830.000,0.200,3225.000,0.300,631.000,0.500,453.000,1.000,101.000,5.000,0
"04/05/08","21:09:42",30590.000,"cc",28349.434,6.00,6,0.100,25848.000,0.200,3412.000,0.300,729.000,0.500,496.000,1.000,105.000,5.000,0
"04/05/08","21:09:48",47027.000,"cc",28297.479,6.00,6,0.100,40588.000,0.200,5004.000,0.300,781.000,0.500,529.000,1.000,125.000,5.000,0
"04/05/08","21:09:54",39436.000,"cc",28359.461,6.00,6,0.100,33995.000,0.200,4214.000,0.300,682.000,0.500,452.000,1.000,93.000,5.000,0
"04/05/08","21:10:00",15342.000,"cc",28283.150,6.00,6,0.100,12491.000,0.200,1845.000,0.300,527.000,0.500,393.000,1.000,86.000,5.000,0
"04/05/08","21:10:06",20321.000,"cc",28305.557,6.00,6,0.100,17161.000,0.200,2218.000,0.300,487.000,0.500,380.000,1.000,75.000,5.000,0
"04/05/08","21:10:12",21924.000,"cc",28369.732,6.00,6,0.100,18775.000,0.200,2334.000,0.300,448.000,0.500,290.000,1.000,77.000,5.000,0
"04/05/08","21:10:18",20290.000,"cc",28313.535,6.00,6,0.100,17158.000,0.200,2253.000,0.300,456.000,0.500,335.000,1.000,88.000,5.000,0
"04/05/08","21:10:24",28350.000,"cc",28340.660,6.00,6,0.100,24480.000,0.200,2982.000,0.300,486.000,0.500,316.000,1.000,86.000,5.000,0
"04/05/08","21:10:30",19844.000,"cc",28303.711,6.00,6,0.100,16761.000,0.200,2254.000,0.300,435.000,0.500,308.000,1.000,86.000,5.000,0
"04/05/08","21:10:36",27827.000,"cc",28290.486,6.00,6,0.100,23691.000,0.200,3079.000,0.300,603.000,0.500,358.000,1.000,95.000,5.000,1.000
"04/05/08","21:10:42",23478.000,"cc",28273.766,6.00,6,0.100,19615.000,0.200,2677.000,0.300,664.000,0.500,411.000,1.000,111.000,5.000,0
"04/05/08","21:10:48",13750.000,"cc",28274.574,6.00,6,0.100,11260.000,0.200,1631.000,0.300,472.000,0.500,306.000,1.000,81.000,5.000,0
"04/05/08","21:10:54",7045.000,"cc",28305.678,6.00,6,0.100,5498.000,0.200,868.000,0.300,345.000,0.500,265.000,1.000,69.000,5.000,0
"04/05/08","21:11:00",7579.000,"cc",28377.393,6.00,6,0.100,5656.000,0.200,1023.000,0.300,439.000,0.500,362.000,1.000,99.000,5.000,0
"04/05/08","21:11:06",10378.000,"cc",28335.865,6.00,6,0.100,7666.000,0.200,1507.000,0.300,621.000,0.500,482.000,1.000,102.000,5.000,0
"04/05/08","21:11:12",19441.000,"cc",28407.549,6.00,6,0.100,15138.000,0.200,2570.000,0.300,950.000,0.500,658.000,1.000,125.000,5.000,0
"04/05/08","21:11:18",52170.000,"cc",28285.619,6.00,6,0.100,45120.000,0.200,5550.000,0.300,856.000,0.500,518.000,1.000,126.000,5.000,0
"04/05/08","21:11:24",39687.000,"cc",28377.240,6.00,6,0.100,34264.000,0.200,4249.000,0.300,670.000,0.500,402.000,1.000,102.000,5.000,0
"04/05/08","21:11:30",200065.000,"cc",28208.037,6.00,6,0.100,174359.000,0.200,23911.000,0.300,1352.000,0.500,361.000,1.000,82.000,5.000,0
"04/05/08","21:11:36",224707.000,"cc",28299.522,6.00,6,0.100,196671.000,0.200,25745.000,0.300,1688.000,0.500,497.000,1.000,106.000,5.000,0
"04/05/08","21:11:42",282104.000,"cc",28319.125,6.00,6,0.100,243876.000,0.200,35483.000,0.300,2087.000,0.500,543.000,1.000,115.000,5.000,0
"04/05/08","21:11:48",205684.000,"cc",28330.475,6.00,6,0.100,180696.000,0.200,22852.000,0.300,1500.000,0.500,521.000,1.000,115.000,5.000,0
"04/05/08","21:11:54",225166.000,"cc",28333.932,6.00,6,0.100,196702.000,0.200,25832.000,0.300,1838.000,0.500,655.000,1.000,139.000,5.000,0
"04/05/08","21:12:00",256287.000,"cc",28287.647,6.00,6,0.100,223152.000,0.200,30376.000,0.300,2024.000,0.500,597.000,1.000,138.000,5.000,0
"04/05/08","21:12:06",267945.000,"cc",28335.170,6.00,6,0.100,233278.000,0.200,31650.000,0.300,2158.000,0.500,719.000,1.000,140.000,5.000,0
"04/05/08","21:12:12",285981.000,"cc",28354.998,6.00,6,0.100,248151.000,0.200,34884.000,0.300,2211.000,0.500,598.000,1.000,137.000,5.000,0
"04/05/08","21:12:18",300353.000,"cc",28311.557,6.00,6,0.100,260217.000,0.200,37188.000,0.300,2244.000,0.500,563.000,1.000,141.000,5.000,0
"04/05/08","21:12:24",338685.000,"cc",28313.154,6.00,6,0.100,291964.000,0.200,43623.000,0.300,2451.000,0.500,542.000,1.000,105.000,5.000,0
"04/05/08","21:12:30",335927.000,"cc",28292.643,6.00,6,0.100,289256.000,0.200,43430.000,0.300,2501.000,0.500,616.000,1.000,124.000,5.000,0
"04/05/08","21:12:36",335092.000,"cc",28335.102,6.00,6,0.100,288684.000,0.200,43249.000,0.300,2475.000,0.500,566.000,1.000,118.000,5.000,0
"04/05/08","21:12:42",292857.000,"cc",28323.955,6.00,6,0.100,254801.000,0.200,35635.000,0.300,1911.000,0.500,432.000,1.000,78.000,5.000,0
"04/05/08","21:12:48",292225.000,"cc",28305.252,6.00,6,0.100,253657.000,0.200,35530.000,0.300,2221.000,0.500,681.000,1.000,136.000,5.000,0
"04/05/08","21:12:54",258822.000,"cc",28235.990,6.00,6,0.100,225412.000,0.200,30495.000,0.300,2096.000,0.500,686.000,1.000,133.000,5.000,0
"04/05/08","21:13:00",252861.000,"cc",28341.850,6.00,6,0.100,220510.000,0.200,29741.000,0.300,1899.000,0.500,577.000,1.000,134.000,5.000,0
"04/05/08","21:13:06",219453.000,"cc",28332.283,6.00,6,0.100,192412.000,0.200,24784.000,0.300,1646.000,0.500,494.000,1.000,117.000,5.000,0
"04/05/08","21:13:12",150628.000,"cc",28289.422,6.00,6,0.100,133358.000,0.200,15765.000,0.300,1036.000,0.500,388.000,1.000,81.000,5.000,0
"04/05/08","21:13:18",149357.000,"cc",28322.416,6.00,6,0.100,132313.000,0.200,15617.000,0.300,981.000,0.500,352.000,1.000,94.000,5.000,0
"04/05/08","21:13:24",129771.000,"cc",28325.059,6.00,6,0.100,115097.000,0.200,13361.000,0.300,883.000,0.500,348.000,1.000,82.000,5.000,0
"04/05/08","21:13:30",73636.000,"cc",28298.510,6.00,6,0.100,65346.000,0.200,7338.000,0.300,567.000,0.500,319.000,1.000,66.000,5.000,0
"04/05/08","21:13:36",55577.000,"cc",28350.166,6.00,6,0.100,48822.000,0.200,5667.000,0.300,617.000,0.500,381.000,1.000,90.000,5.000,0
"04/05/08","21:13:42",60143.000,"cc",28328.512,6.00,6,0.100,52791.000,0.200,6058.000,0.300,774.000,0.500,424.000,1.000,96.000,5.000,0
"04/05/08","21:13:48",55832.000,"cc",28305.063,6.00,6,0.100,48974.000,0.200,5608.000,0.300,713.000,0.500,445.000,1.000,92.000,5.000,0
"04/05/08","21:13:54",52951.000,"cc",28302.773,6.00,6,0.100,45678.000,0.200,5648.000,0.300,912.000,0.500,588.000,1.000,125.000,5.000,0
"04/05/08","21:14:00",50167.000,"cc",28346.746,6.00,6,0.100,43437.000,0.200,5325.000,0.300,811.000,0.500,481.000,1.000,113.000,5.000,0
"04/05/08","21:14:06",51381.000,"cc",28334.246,6.00,6,0.100,44842.000,0.200,5309.000,0.300,729.000,0.500,415.000,1.000,86.000,5.000,0
"04/05/08","21:14:12",55601.000,"cc",28318.076,6.00,6,0.100,48061.000,0.200,5922.000,0.300,912.000,0.500,596.000,1.000,110.000,5.000,0
"04/05/08","21:14:18",54579.000,"cc",28300.924,6.00,6,0.100,46644.000,0.200,5990.000,0.300,1134.000,0.500,685.000,1.000,126.000,5.000,0
"04/05/08","21:14:24",56197.000,"cc",28349.170,6.00,6,0.100,48229.000,0.200,6121.000,0.300,1036.000,0.500,642.000,1.000,169.000,5.000,0
"04/05/08","21:14:30",54793.000,"cc",28298.090,6.00,6,0.100,46943.000,0.200,5969.000,0.300,1052.000,0.500,678.000,1.000,151.000,5.000,0
"04/05/08","21:14:36",52927.000,"cc",28341.840,6.00,6,0.100,45718.000,0.200,5572.000,0.300,907.000,0.500,595.000,1.000,135.000,5.000,0
"04/05/08","21:14:42",53904.000,"cc",28286.625,6.00,6,0.100,46655.000,0.200,5734.000,0.300,867.000,0.500,533.000,1.000,115.000,5.000,0
"04/05/08","21:14:48",49999.000,"cc",28334.557,6.00,6,0.100,43645.000,0.200,5150.000,0.300,650.000,0.500,454.000,1.000,100.000,5.000,0
"04/05/08","21:14:54",50492.000,"cc",28328.787,6.00,6,0.100,43968.000,0.200,5212.000,0.300,763.000,0.500,443.000,1.000,106.000,5.000,0
"04/05/08","21:15:00",45486.000,"cc",28312.850,6.00,6,0.100,39450.000,0.200,4800.000,0.300,681.000,0.500,451.000,1.000,104.000,5.000,0
"04/05/08","21:15:06",45959.000,"cc",28296.014,6.00,6,0.100,39818.000,0.200,4936.000,0.300,671.000,0.500,441.000,1.000,93.000,5.000,0
"04/05/08","21:15:12",47381.000,"cc",28346.670,6.00,6,0.100,41364.000,0.200,4888.000,0.300,637.000,0.500,408.000,1.000,84.000,5.000,0
"04/05/08","21:15:18",47964.000,"cc",28276.684,6.00,6,0.100,41295.000,0.200,5094.000,0.300,868.000,0.500,577.000,1.000,130.000,5.000,0
"04/05/08","21:15:24",56120.000,"cc",28345.117,6.00,6,0.100,49030.000,0.200,5820.000,0.300,710.000,0.500,448.000,1.000,112.000,5.000,0
"04/05/08","21:15:30",52542.000,"cc",28308.799,6.00,6,0.100,45981.000,0.200,5421.000,0.300,622.000,0.500,419.000,1.000,99.000,5.000,0
"04/05/08","21:15:36",50823.000,"cc",28345.643,6.00,6,0.100,44279.000,0.200,5324.000,0.300,684.000,0.500,459.000,1.000,77.000,5.000,0
"04/05/08","21:15:42",45620.000,"cc",28309.617,6.00,6,0.100,39738.000,0.200,4653.000,0.300,684.000,0.500,435.000,1.000,110.000,5.000,0
"04/05/08","21:15:48",39561.000,"cc",28254.576,6.00,6,0.100,33580.000,0.200,4390.000,0.300,860.000,0.500,609.000,1.000,122.000,5.000,0
"04/05/08","21:15:54",22219.000,"cc",28305.240,6.00,6,0.100,18692.000,0.200,2495.000,0.300,549.000,0.500,396.000,1.000,87.000,5.000,0
"04/05/08","21:16:00",30995.000,"cc",28366.205,6.00,6,0.100,25449.000,0.200,3816.000,0.300,1008.000,0.500,592.000,1.000,130.000,5.000,0
"04/05/08","21:16:06",37991.000,"cc",28311.856,6.00,6,0.100,29801.000,0.200,5189.000,0.300,1696.000,0.500,1093.000,1.000,212.000,5.000,0
"04/05/08","21:16:12",37378.000,"cc",28296.168,6.00,6,0.100,30242.000,0.200,4732.000,0.300,1342.000,0.500,868.000,1.000,194.000,5.000,0
"04/05/08","21:16:18",29205.000,"cc",28363.131,6.00,6,0.100,24267.000,0.200,3459.000,0.300,827.000,0.500,537.000,1.000,115.000,5.000,0